Regional Weather Roundup
Issued by NWS Goodland, KS

Home | Current Version | Previous Version | Text Only | Print | Product List | Glossary Off
Versions: 1 2 3 4 5 6 7 8 9 10 11 12 13 14 15 16 17 18 19 20 21 22 23 24 25 26 27 28 29 30 31 32 33 34 35 36 37 38 39 40 41 42 43 44 45 46 47 48 49 50

000
ASUS43 KGLD 051208
RWRGLD

GOODLAND FORECAST AREA HOURLY WEATHER ROUNDUP
NATIONAL WEATHER SERVICE GOODLAND KS
600 AM MDT THU MAY 05 2016

...OFFICIAL OBSERVATIONS...

CITY           SKY/WX    TMP DP  RH WIND       PRES   REMARKS
GOODLAND KS    CLEAR     54  42  64 SW10      30.10R HAZE
HILL CITY KS   CLEAR     41  39  93 W3        30.11R
IMPERIAL NEB   CLEAR     47  41  80 CALM      30.10R
MCCOOK NEB     CLEAR     43  40  89 CALM      30.10S
AKRON CO       CLOUDY    50  39  66 SW13      30.11R
BURLINGTON CO  CLOUDY    46  39  76 SW9       30.11F
LIMON CO       CLOUDY    34  34 100 N7        30.16S
$$

...UNOFFICIAL OBSERVATIONS...

CITY           SKY/WX    TMP DP  RH WIND       PRES   REMARKS
COLBY KS       CLEAR     45  45 100 SW6       30.12S
LENORA KS        N/A     49  32  52 MISG        N/A
NORTON KS      CLEAR     39  36  87 CALM      30.10R
SHARON SPRINGS   N/A     51  45  79 S13         N/A
TRIBUNE KS     CLEAR     46  43  87 S6        30.13
KIT CARSON CO    N/A     43  38  83 MISG        N/A
YUMA CO          N/A     45  41  85 CALM        N/A
$$




USA.gov is the U.S. government's official web portal to all federal, state and local government web resources and services.